Wetterdaten Diepholz (ETND)

METAR
METAR text: ETND 241120Z 28011KT 9999 FEW040 BKN060 17/06 Q1022 BLU Conditions at: ETND (DIEPHOLZ (GER-AF, DE) observed 1120 UTC 24 May 2017 Temperature: 17.0°C (63°F) Dewpoint: 6.0°C (43°F) [RH = 48%] Pressure (altimeter): 30.18 inches Hg (1022.0 mb) Winds: from the W (280 degrees) at 13 MPH (11 knots; 5.7 m/s) Visibility: 6 or more miles (10+ km) Ceiling: 6000 feet AGL Clouds: few clouds at 4000 feet AGL =
broken clouds at 6000 feet AGL Weather: no significant weather observed at this time
Sunrise (SR) / Sunset (SS)
03:16 / 19:30 UTC

Wetterdaten Bremen (EDDW)

METAR
METAR text: EDDW 241120Z 30011KT 9999 FEW040 BKN070 17/07 Q1022 NOSIG Conditions at: EDDW (BREMEN , DE) observed 1120 UTC 24 May 2017 Temperature: 17.0°C (63°F) Dewpoint: 7.0°C (45°F) [RH = 52%] Pressure (altimeter): 30.18 inches Hg (1022.0 mb) Winds: from the WNW (300 degrees) at 13 MPH (11 knots; 5.7 m/s) Visibility: 6 or more miles (10+ km) Ceiling: 7000 feet AGL Clouds: few clouds at 4000 feet AGL =
broken clouds at 7000 feet AGL Weather: no significant weather observed at this time
Quelle: ADDS

Piloteninformation

Name

Militärflugplatz und Verkehrslandeplatz Diepholz

ICAO-CODE

ETND

Lage/Position

1,5 NM SW Diepholz

Koordinaten/Coordinates

52 35, 13 N / 08 20, 44 E

Zeit/Time

UTC+1 (Sommerzeit/DST UTC+2)

Höhe über Grund/Elevation

39 m/127 ft

Öffnungszeiten/OPR HRS

Sommerzeit

07:00 UTC - 18:00 UTC OT PPR

Winterzeit

08:00 UTC - SS+30 OT PPR

Kontrollzone/CTR

HX

Diepholz Info

+49 (0)5441 / 44 26, 92 74 00, Fax 44 25

Piste/RWY

08/26

Länge, Breite/Dimensions

08/26 1.283m, 45m ASPH

Verfügbare Startlauf-, Landestrecke/TORA, LDA

08/26 1.283 m

Betriebsarten/Operation Cat.

Sichtflug (VFR), Sichtflug bei Nacht (NVFR)

Rufzeichen/Call sign

Diepholz Info 122.600 GE

zu anderen Zeiten/other times
(bei militärischer Öffnungszeit)
Diepholz Turm/Tower 122.100 EN/GE

Frequenz/Frequency

Diepholz Info 122.600 GE

zu anderen Zeiten/other times
122.100 EN/GE

Navigationshilfen/NAV Aids

006°/23 NM from OSN 114.30 - 268°/38 NM from NIE 116.50

Fluginformationsdienst/FIS

Bremen Information 119.825

Flugberatungsdienst/AIS

 +49 (0)69 / 78072500

Flugwetterberatung/MET

0900 1 077221

Flugwettervorhersage/GAFOR

7

Luftfahrzeuge/ACFT

Flugzeuge bis 5.700 kg MTOW
Hubschrauber (HEL) bis 5.700 kg MTOW
Motorsegler (TMG)
Ultraleichtflugzeuge (UL)
Segelflugzeuge (GLD)
Ballons und Luftschiffe (BA)
Fallschirmspringer (PJE)

andere/others PPR

Kraftstoffe/Fuel

JetA1, AVGAS100LL, SUPER+ (plus)

Öl/Oil

15W50

Platzrunde/TFC PAT

 S 1000

Hangar/HNGR

 auf Anfrage/on request

Bemerkungen/Remarks

SAT, SUN, HOL: Segelflugzeuge/GLD im Nordbereich/in northern area
Wohngebiete meiden/avoid residential areas.

 

Copyright © 2015 Flugplatz Diepholz-Dümmerland

© 2015 Flugplatz Diepholz-Dümmerland